Hourly Data Report for July 10, 2021

HALIFAX STANFIELD INT'L A
NOVA SCOTIA
Current Station Operator: NAVCAN

44°52'52.000" N
63°30'31.000" W
145.40 m
8202251
71395
YHZ

Download Data

Hourly Data (July 2021)
Hourly Data Report for July 10, 2021
TIME
LST
Temp Definition
°C
Dew Point Definition
°C
Rel Hum Definition
%
Precip. Amount Definition
mm

Wind Dir Definition
10's deg

Wind Spd Definition
km/h
Visibility Definition
km
Stn Press Definition
kPa
Hmdx Definition


Wind Chill Definition


Weather Definition


00:00 20.0 20.0 100   18 47 8.1 99.10 28   Rain Showers, Fog
01:00 19.6 19.3 98   20 47 9.7 98.97     Drizzle, Fog
02:00 17.8 17.6 99   20 49 8.1 98.82     Drizzle, Fog
03:00 16.5 16.5 100   21 48 3.2 98.80     Drizzle, Fog
04:00 15.7 15.7 100   21 27 1.2 98.91     Fog
05:00 16.2 16.2 100   23 27 16.1 98.99     Cloudy
06:00 17.7 16.9 95   25 36 24.1 99.22     LegendNANA
07:00 19.2 17.5 90   28 28 24.1 99.37     LegendNANA
08:00 21.0 18.3 84   29 21 24.1 99.53 27   Mainly Clear
09:00 22.0 18.1 78   29 21 24.1 99.61 28   LegendNANA
10:00 22.8 17.8 73   27 13 24.1 99.73 29   LegendNANA
11:00 24.3 18.8 71   29 13 24.1 99.78 31   Mostly Cloudy
12:00 24.9 18.3 66   21 11 24.1 99.77 31   LegendNANA
13:00 26.5 19.7 66   27 9 24.1 99.78 34   LegendNANA
14:00 26.7 17.8 58   22 15 24.1 99.74 33   Mostly Cloudy
15:00 24.4 19.4 73   36 11 24.1 99.75 31   LegendNANA
16:00 23.7 19.0 75   22 18 24.1 99.77 30   LegendNANA
17:00 23.2 19.4 79   24 9 24.1 99.79 30   Mostly Cloudy
18:00 21.9 19.3 85   35 8 24.1 99.82 29   LegendNANA
19:00 21.5 19.0 86   36 8 24.1 99.84 28   LegendNANA
20:00 20.2 17.7 85   2 10 24.1 99.86 26   Mostly Cloudy
21:00 18.6 15.9 84   1 11 24.1 99.88     LegendNANA
22:00 17.7 15.5 87   35 8 24.1 99.90     LegendNANA
23:00 17.7 15.0 84   35 8 24.1 99.90     Cloudy

Notes on Data Quality.

Legend

  • E = Estimated
  • M = Missing
  • NA = Not Available*
  • [empty] = Indicates an unobserved value
Date modified: